This demonstration page uses our WeatherBlox Daily Observations layout. Learn more.

Hourly Observations for February 22, 2017

Temp ( °F °C ) Dew Point ( °F °C ) Humidity (%) Winds ( mph kmh ) Pressure ( in mb ) Visibility ( mi km ) Precip ( " mm )
12:15 am 00:15 Clear 55 12.6 25 -4.1 31 31 WSW 7 11 29.77 1008 10 16.0934 0 0
12:35 am 00:35 Clear 54 12.1 25 -4.1 32 32 WSW 6 9 29.77 1008 10 16.0934 0 0
12:55 am 00:55 Clear 54 12.4 25 -4.1 32 32 WSW 7 11 29.77 1008 10 16.0934 0 0
1:15 am 01:15 Clear 53 11.4 25 -4.1 34 34 W 6 9 29.77 1008 10 16.0934 0 0
1:35 am 01:35 Clear 51 10.7 24 -4.5 34 34 W 3 6 29.74 1007 10 16.0934 0 0
1:55 am 01:55 Clear 48 9.1 24 -4.3 39 39 WSW 3 6 29.77 1008 10 16.0934 0 0
2:15 am 02:15 Clear 49 9.4 23 -4.8 37 37 Calm 29.74 1007 10 16.0934 0 0
2:35 am 02:35 Clear 38 3.3 25 -3.7 60 60 Calm 29.8 1009 10 16.0934 0 0
2:55 am 02:55 Clear 38 3.6 24 -4.4 56 56 SSW 3 6 29.77 1008 10 16.0934 0 0
3:15 am 03:15 Clear 36 2 23 -5 60 60 Calm 29.8 1009 10 16.0934 0 0
3:35 am 03:35 Clear 37 2.8 24 -4.6 59 59 W 3 6 29.77 1008 10 16.0934 0 0
3:55 am 03:55 Clear 42 5.7 25 -4 50 50 SW 3 6 29.74 1007 10 16.0934 0 0
4:15 am 04:15 Clear 42 5.7 26 -3.6 52 52 WSW 5 7 29.74 1007 10 16.0934 0 0
4:35 am 04:35 Clear 44 6.5 25 -3.7 48 48 WSW 3 6 29.71 1006 10 16.0934 0 0
4:55 am 04:55 Clear 40 4.6 26 -3.6 56 56 W 7 11 29.77 1008 10 16.0934 0 0
5:15 am 05:15 Clear 41 5.1 26 -3.5 54 54 W 7 11 29.74 1007 10 16.0934 0 0
5:35 am 05:35 Clear 40 4.5 25 -3.9 55 55 WSW 8 13 29.77 1008 10 16.0934 0 0
5:55 am 05:55 Clear 42 5.5 25 -4.1 50 50 W 9 15 29.77 1008 10 16.0934 0 0
6:15 am 06:15 Clear 44 6.6 25 -4.1 47 47 W 12 19 29.74 1007 10 16.0934 0 0
6:35 am 06:35 Clear 44 6.7 24 -4.7 44 44 WNW 8 13 29.74 1007 10 16.0934 0 0
6:55 am 06:55 Clear 44 6.6 24 -4.7 45 45 WNW 10 17 29.74 1007 10 16.0934 0 0
7:15 am 07:15 Clear 43 6.1 24 -4.3 48 48 WNW 10 17 29.8 1009 10 16.0934 0 0
7:35 am 07:35 Sunny 44 6.8 26 -3.5 48 48 NW 12 19 29.8 1009 10 16.0934 0 0
7:55 am 07:55 Sunny 44 6.6 26 -3.5 49 49 NW 10 17 29.8 1009 10 16.0934 0 0
8:15 am 08:15 Sunny 46 8 26 -3.3 45 45 NW 8 13 29.77 1008 10 16.0934 0 0
8:35 am 08:35 Sunny 48 8.9 27 -2.8 44 44 NW 10 17 29.77 1008 10 16.0934 0 0
8:55 am 08:55 Sunny 50 10.2 29 -1.9 43 43 WNW 12 19 29.8 1009 10 16.0934 0 0
9:15 am 09:15 Sunny 52 11 30 -0.9 44 44 WNW 8 13 29.77 1008 10 16.0934 0 0
9:35 am 09:35 Sunny 54 12 31 -0.3 43 43 NW 12 19 29.77 1008 10 16.0934 0 0
9:55 am 09:55 Sunny 55 13 32 0 41 41 NW 14 22 29.77 1008 10 16.0934 0 0
10:15 am 10:15 Sunny 59 14.9 33 0.4 37 37 NW 16 26 29.74 1007 10 16.0934 0 0
10:35 am 10:35 Sunny 60 15.6 33 0.5 36 36 NW 20 31 29.74 1007 10 16.0934 0 0
10:55 am 10:55 Sunny 62 16.8 33 0.6 34 34 NW 16 26 29.74 1007 10 16.0934 0 0
11:15 am 11:15 Sunny 63 17.2 33 0.4 32 32 NW 17 28 29.74 1007 10 16.0934 0 0
11:35 am 11:35 Sunny 64 17.8 32 0.1 30 30 NW 21 33 29.71 1006 10 16.0934 0 0
11:55 am 11:55 Sunny 64 18 29 -1.9 26 26 NNW 14 22 29.71 1006 10 16.0934 0 0
12:15 pm 12:15 Sunny 66 18.9 29 -1.4 25 25 NW 12 19 29.71 1006 10 16.0934 0 0
12:35 pm 12:35 Sunny 67 19.2 28 -2.2 24 24 NW 13 20 29.68 1005 10 16.0934 0 0
12:55 pm 12:55 Sunny 67 19.6 24 -4.2 20 20 NW 10 17 29.68 1005 10 16.0934 0 0
1:15 pm 13:15 Sunny 68 20 24 -4.2 19 19 NW 13 20 29.68 1005 10 16.0934 0 0
1:35 pm 13:35 Sunny 68 19.8 24 -4.5 19 19 WNW 13 20 29.68 1005 10 16.0934 0 0
1:55 pm 13:55 Sunny 68 20.1 22 -5.7 17 17 NW 10 17 29.68 1005 10 16.0934 0 0
2:15 pm 14:15 Sunny 68 20.1 22 -5.4 17 17 NW 9 15 29.68 1005 10 16.0934 0 0
2:35 pm 14:35 Sunny 68 20.1 21 -5.9 17 17 WNW 12 19 29.65 1004 10 16.0934 0 0
2:55 pm 14:55 Sunny 68 20.1 21 -6.3 16 16 WNW 8 13 29.65 1004 10 16.0934 0 0
3:15 pm 15:15 Sunny 68 20.2 20 -6.5 16 16 W 12 19 29.65 1004 10 16.0934 0 0
3:35 pm 15:35 Sunny 67 19.7 20 -6.8 16 16 WNW 7 11 29.68 1005 10 16.0934 0 0
3:55 pm 15:55 Sunny 67 19.6 19 -7.1 16 16 WNW 13 20 29.68 1005 10 16.0934 0 0
4:15 pm 16:15 Sunny 67 19.5 19 -7.1 16 16 WNW 12 19 29.68 1005 10 16.0934 0 0
4:35 pm 16:35 Sunny 67 19.3 19 -7.4 16 16 NNW 3 6 29.68 1005 10 16.0934 0 0
4:55 pm 16:55 Sunny 66 19.1 19 -7.5 16 16 NW 9 15 29.65 1004 10 16.0934 0 0
5:15 pm 17:15 Sunny 65 18.6 18 -7.7 16 16 NW 5 7 29.65 1004 10 16.0934 0 0
5:35 pm 17:35 Sunny 65 18.2 18 -8 16 16 NNW 5 7 29.65 1004 10 16.0934 0 0
5:55 pm 17:55 Sunny 63 17.1 20 -6.9 19 19 NNW 5 7 29.68 1005 10 16.0934 0 0
6:15 pm 18:15 Sunny 60 15.3 20 -6.6 22 22 N 5 7 29.71 1006 10 16.0934 0 0
6:35 pm 18:35 Clear 58 14.2 21 -6.2 24 24 N 5 7 29.71 1006 10 16.0934 0 0
6:55 pm 18:55 Clear 55 13 20 -6.4 26 26 NNW 5 7 29.74 1007 10 16.0934 0 0
7:15 pm 19:15 Clear 50 10.2 21 -6.2 31 31 Calm 29.74 1007 7 11.26538 0 0
7:35 pm 19:35 Clear 48 8.9 20 -6.4 34 34 N 5 7 29.77 1008 7 11.26538 0 0
7:55 pm 19:55 Clear 48 8.7 21 -6 35 35 N 8 13 29.77 1008 7 11.26538 0 0
8:15 pm 20:15 Clear 44 6.7 22 -5.7 41 41 NNE 9 15 29.8 1009 10 16.0934 0 0
8:35 pm 20:35 Clear 46 8 23 -4.9 40 40 NNE 12 19 29.77 1008 10 16.0934 0 0
8:55 pm 20:55 Clear 44 6.5 23 -5 44 44 NE 12 19 29.83 1010 10 16.0934 0 0
9:15 pm 21:15 Clear 44 6.5 26 -3.1 51 51 NE 10 17 29.8 1009 10 16.0934 0 0
9:35 pm 21:35 Clear 42 5.8 27 -2.8 54 54 NE 12 19 29.8 1009 10 16.0934 0 0
9:55 pm 21:55 Clear 44 6.5 28 -2 55 55 NE 10 17 29.83 1010 10 16.0934 0 0
10:15 pm 22:15 Clear 42 5.8 29 -1.6 59 59 ENE 9 15 29.8 1009 10 16.0934 0 0
10:35 pm 22:35 Clear 41 5.1 29 -1.7 62 62 NE 8 13 29.8 1009 10 16.0934 0 0
10:55 pm 22:55 Clear 39 4.1 28 -2 65 65 NE 10 17 29.8 1009 10 16.0934 0 0
11:15 pm 23:15 Clear 38 3.5 28 -2.1 67 67 NE 10 17 29.83 1010 10 16.0934 0 0
11:55 pm 23:55 Clear 40 4.5 29 -1.5 65 65 NE 13 20 29.8 1009 10 16.0934 0 0

Powered by AerisWeather